• In Hungary
  • List of Countries
  • For 7 days
  • Water Temperature
  • Satellite Maps
  • Weather Map
  • News
  • Weather Widgets
  • user-avatar
    Login

    Hourly Weather Rottenburg

    Today, 19 October, Friday

    Time Temperature Precipitation Wind Pressure Humidity
    00:00 +12°C° 0 mm 2 mps 730 mmHg 94%
    01:00 +12°C° 0 mm 2 mps 730 mmHg 95%
    02:00 +10°C° 0 mm 2 mps 730 mmHg 96%
    03:00 +10°C° 0 mm 2 mps 730 mmHg 96%
    04:00 +10°C° 0 mm 2 mps 730 mmHg 96%
    05:00 +10°C° 0 mm 1 mps 730 mmHg 96%
    06:00 +10°C° 0 mm 1 mps 730 mmHg 96%
    07:00 +10°C° 0 mm 1 mps 730 mmHg 96%
    08:00 +12°C° 0 mm 1 mps 730 mmHg 89%
    09:00 +13°C° 0 mm 2 mps 731 mmHg 83%
    10:00 +15°C° 0 mm 2 mps 731 mmHg 76%
    11:00 +16°C° 0 mm 2 mps 731 mmHg 71%
    12:00 +18°C° 0 mm 2 mps 731 mmHg 66%
    13:00 +19°C° 0 mm 2 mps 731 mmHg 61%
    14:00 +19°C° 0 mm 2 mps 731 mmHg 63%
    15:00 +19°C° 0 mm 2 mps 731 mmHg 65%
    16:00 +18°C° 0 mm 2 mps 731 mmHg 66%
    17:00 +17°C° 0 mm 2 mps 731 mmHg 74%
    18:00 +15°C° 0 mm 2 mps 731 mmHg 81%
    19:00 +13°C° 0 mm 1 mps 731 mmHg 88%
    20:00 +12°C° 0 mm 1 mps 731 mmHg 89%
    21:00 +12°C° 0 mm 1 mps 732 mmHg 91%
    22:00 +11°C° 0 mm 1 mps 732 mmHg 92%
    23:00 +11°C° 0 mm 1 mps 732 mmHg 92%

    Tomorrow, 20 October, Saturday

    Time Temperature Precipitation Wind Pressure Humidity
    00:00 +11°C° 0 mm 1 mps 732 mmHg 92%
    01:00 +10°C° 0 mm 1 mps 733 mmHg 93%
    02:00 +10°C° 0 mm 1 mps 733 mmHg 93%
    03:00 +10°C° 0 mm 1 mps 733 mmHg 93%
    04:00 +10°C° 0 mm 1 mps 733 mmHg 93%
    05:00 +9°C° 0 mm 1 mps 733 mmHg 94%
    06:00 +9°C° 0 mm 1 mps 734 mmHg 94%
    07:00 +8°C° 0 mm 0 mps 734 mmHg 94%
    08:00 +11°C° 0 mm 1 mps 734 mmHg 88%
    09:00 +13°C° 0 mm 1 mps 735 mmHg 82%
    10:00 +15°C° 0 mm 1 mps 735 mmHg 75%
    11:00 +16°C° 0 mm 2 mps 735 mmHg 72%
    12:00 +17°C° 0 mm 2 mps 735 mmHg 68%
    13:00 +18°C° 0 mm 2 mps 735 mmHg 65%
    14:00 +17°C° 0 mm 2 mps 735 mmHg 66%
    15:00 +17°C° 0 mm 2 mps 735 mmHg 67%
    16:00 +17°C° 0 mm 2 mps 735 mmHg 68%
    17:00 +15°C° 0 mm 2 mps 735 mmHg 75%
    18:00 +13°C° 0 mm 2 mps 735 mmHg 81%
    19:00 +11°C° 0 mm 1 mps 736 mmHg 87%
    20:00 +11°C° 0 mm 1 mps 736 mmHg 88%
    21:00 +10°C° 0 mm 1 mps 736 mmHg 89%
    22:00 +9°C° 0 mm 1 mps 736 mmHg 89%
    23:00 +9°C° 0 mm 1 mps 736 mmHg 90%

    Day after tomorrow, 21 October, Sunday

    Time Temperature Precipitation Wind Pressure Humidity
    00:00 +9°C° 0 mm 1 mps 736 mmHg 90%
    01:00 +8°C° 0 mm 1 mps 735 mmHg 91%
    02:00 +8°C° 0 mm 1 mps 735 mmHg 91%
    03:00 +8°C° 0 mm 1 mps 735 mmHg 91%
    04:00 +8°C° 0 mm 1 mps 735 mmHg 92%
    05:00 +7°C° 0 mm 1 mps 735 mmHg 92%
    06:00 +7°C° 0 mm 1 mps 735 mmHg 92%
    07:00 +7°C° 0 mm 1 mps 735 mmHg 93%
    08:00 +9°C° 0 mm 1 mps 735 mmHg 85%
    09:00 +12°C° 0 mm 1 mps 735 mmHg 77%
    10:00 +14°C° 0 mm 1 mps 735 mmHg 70%
    11:00 +15°C° 0 mm 1 mps 735 mmHg 63%
    12:00 +16°C° 0 mm 1 mps 735 mmHg 57%
    13:00 +18°C° 0 mm 2 mps 734 mmHg 51%
    14:00 +17°C° 0 mm 2 mps 734 mmHg 53%
    15:00 +17°C° 0 mm 2 mps 734 mmHg 56%
    16:00 +17°C° 0 mm 2 mps 733 mmHg 58%
    17:00 +15°C° 0 mm 1 mps 733 mmHg 65%
    18:00 +13°C° 0 mm 1 mps 733 mmHg 71%
    19:00 +10°C° 0 mm 1 mps 733 mmHg 77%
    20:00 +10°C° 0 mm 1 mps 733 mmHg 79%
    21:00 +9°C° 0 mm 1 mps 734 mmHg 80%
    22:00 +8°C° 0 mm 0 mps 734 mmHg 81%
    23:00 +8°C° 0 mm 0 mps 734 mmHg 81%

    22 October, Monday

    Time Temperature Precipitation Wind Pressure Humidity
    00:00 +7°C° 0 mm 0 mps 733 mmHg 82%
    01:00 +7°C° 0 mm 0 mps 733 mmHg 82%
    02:00 +7°C° 0 mm 0 mps 733 mmHg 83%
    03:00 +7°C° 0 mm 0 mps 733 mmHg 83%
    04:00 +6°C° 0 mm 0 mps 733 mmHg 83%
    05:00 +6°C° 0 mm 0 mps 733 mmHg 84%
    06:00 +6°C° 0 mm 0 mps 733 mmHg 85%
    07:00 +6°C° 0 mm 1 mps 733 mmHg 85%
    08:00 +8°C° 0 mm 1 mps 734 mmHg 77%
    09:00 +11°C° 0 mm 1 mps 734 mmHg 68%
    10:00 +13°C° 0 mm 1 mps 734 mmHg 59%
    11:00 +14°C° 0 mm 2 mps 734 mmHg 56%
    12:00 +15°C° 0 mm 2 mps 734 mmHg 54%
    13:00 +16°C° 0 mm 3 mps 734 mmHg 52%
    14:00 +14°C° 0 mm 3 mps 734 mmHg 58%
    15:00 +13°C° 0 mm 3 mps 734 mmHg 64%
    16:00 +12°C° 0 mm 3 mps 734 mmHg 70%
    17:00 +11°C° 0.2 mm 3 mps 735 mmHg 77%
    18:00 +10°C° 0.2 mm 3 mps 735 mmHg 84%
    19:00 +9°C° 0.2 mm 3 mps 736 mmHg 91%
    20:00 +8°C° 0.1 mm 3 mps 736 mmHg 90%
    21:00 +8°C° 0.1 mm 3 mps 736 mmHg 89%
    22:00 +7°C° 0.1 mm 3 mps 737 mmHg 88%
    23:00 +7°C° 0 mm 3 mps 737 mmHg 88%

    23 October, Tuesday

    Time Temperature Precipitation Wind Pressure Humidity
    00:00 +6°C° 0 mm 2 mps 737 mmHg 89%
    01:00 +5°C° 0 mm 2 mps 737 mmHg 89%
    02:00 +4°C° 0 mm 2 mps 737 mmHg 90%
    03:00 +4°C° 0 mm 2 mps 737 mmHg 91%
    04:00 +4°C° 0 mm 1 mps 737 mmHg 92%
    05:00 +4°C° 0 mm 1 mps 737 mmHg 92%
    06:00 +4°C° 0 mm 1 mps 737 mmHg 93%
    07:00 +4°C° 0 mm 1 mps 737 mmHg 94%
    08:00 +5°C° 0 mm 1 mps 737 mmHg 87%
    09:00 +7°C° 0 mm 1 mps 737 mmHg 80%
    10:00 +8°C° 0 mm 1 mps 737 mmHg 74%
    11:00 +8°C° 0 mm 2 mps 737 mmHg 69%
    12:00 +9°C° 0 mm 2 mps 737 mmHg 64%
    13:00 +9°C° 0 mm 2 mps 737 mmHg 58%
    14:00 +9°C° 0.1 mm 3 mps 736 mmHg 63%
    15:00 +8°C° 0.1 mm 3 mps 736 mmHg 67%
    16:00 +8°C° 0.1 mm 3 mps 736 mmHg 72%
    17:00 +7°C° 0.5 mm 3 mps 736 mmHg 78%
    18:00 +7°C° 0.5 mm 3 mps 736 mmHg 84%
    19:00 +5°C° 0.5 mm 3 mps 735 mmHg 89%
    20:00 +6°C° 0.9 mm 2 mps 736 mmHg 91%
    21:00 +7°C° 0.9 mm 2 mps 736 mmHg 93%
    22:00 +7°C° 0.9 mm 2 mps 736 mmHg 94%
    23:00 +7°C° 0.7 mm 2 mps 735 mmHg 94%

    24 October, Wednesday

    Time Temperature Precipitation Wind Pressure Humidity
    00:00 +7°C° 0.7 mm 2 mps 735 mmHg 95%
    01:00 +7°C° 0.7 mm 3 mps 735 mmHg 95%
    02:00 +7°C° 0.8 mm 3 mps 735 mmHg 95%
    03:00 +8°C° 0.8 mm 3 mps 735 mmHg 95%
    04:00 +8°C° 0.8 mm 3 mps 735 mmHg 94%
    05:00 +8°C° 0.4 mm 3 mps 735 mmHg 95%
    06:00 +8°C° 0.4 mm 3 mps 735 mmHg 95%
    07:00 +7°C° 0.4 mm 4 mps 734 mmHg 95%
    08:00 +7°C° 0.7 mm 4 mps 735 mmHg 95%
    09:00 +8°C° 0.7 mm 4 mps 735 mmHg 94%
    10:00 +8°C° 0.7 mm 4 mps 735 mmHg 94%
    11:00 +8°C° 0.3 mm 4 mps 735 mmHg 94%
    12:00 +8°C° 0.3 mm 4 mps 735 mmHg 93%
    13:00 +10°C° 0.3 mm 4 mps 735 mmHg 93%
    14:00 +10°C° 0.2 mm 4 mps 735 mmHg 93%
    15:00 +10°C° 0.2 mm 4 mps 735 mmHg 93%
    16:00 +10°C° 0.2 mm 4 mps 735 mmHg 94%
    17:00 +10°C° 0.1 mm 3 mps 735 mmHg 94%
    18:00 +10°C° 0.1 mm 3 mps 735 mmHg 94%
    19:00 +10°C° 0.1 mm 3 mps 735 mmHg 95%
    20:00 +10°C° 0.1 mm 3 mps 735 mmHg 95%
    21:00 +10°C° 0.1 mm 3 mps 735 mmHg 96%
    22:00 +10°C° 0.1 mm 2 mps 736 mmHg 96%
    23:00 +10°C° 0.1 mm 2 mps 736 mmHg 96%
    Show more